Location: Toronto
(43.6672°N, 79.4170°W)
Time: 14:48:17
(UTC-04:00)

Daily predictions for brighter satellites

Satellite Brightness Start Highest point End
(mag) Time Altitude Azimuth Time Altitude Azimuth Time Altitude Azimuth
Cosmos 2344 4.3 21:05:00 10° SSE 21:11:23 29° ESE 21:18:09 10° NE
Cosmos 1782 3.7 21:10:57 10° N 21:14:36 33° ENE 21:18:13 10° SE
Cosmos 1943 Rocket 2.7 21:10:07 10° S 21:15:10 36° ESE 21:20:12 10° NE
Cosmos 1892 3.1 21:16:44 10° SSW 21:20:33 70° W 21:24:23 10° N
Cosmos 158 Rocket 4.3 21:17:52 10° N 21:22:36 47° ENE 21:27:18 10° SE
Okean 1-7 3.2 21:23:08 10° N 21:27:31 58° E 21:31:50 10° SSE
Resurs 01 Rocket 3.3 21:24:19 10° SSW 21:28:21 34° W 21:32:25 10° NNW
DELTA 2 R/B(2) 4.4 21:27:45 10° SW 21:29:21 22° S 21:30:22 13° SE
Cosmos 1340 3.6 21:27:34 10° N 21:31:00 32° ENE 21:34:23 10° SE
SAR-Lupe-4 4.0 21:27:51 10° SE 21:31:17 46° ENE 21:34:45 10° N
Spot 1 4.4 21:30:08 10° SSE 21:34:58 78° ENE 21:40:04 10° NNW
Cosmos 2279 Rocket 4.2 21:29:25 10° N 21:35:35 56° ENE 21:41:41 10° SSE
Cosmos 2263 4.2 21:31:10 10° SSW 21:36:53 69° ESE 21:42:35 10° NNE
Cosmos 1862 4.4 21:34:13 10° SSE 21:37:31 26° E 21:40:51 10° NNE
Meteor 1-29 3.1 21:36:53 10° NNE 21:40:20 56° E 21:43:46 10° S
YAOGAN 6 2.7 21:38:29 10° S 21:42:11 80° WSW 21:45:53 10° NNW
ISS -2.7 21:41:05 10° WSW 21:44:14 47° NNW 21:47:24 10° NE
H-2A R/B 3.2 21:40:00 11° ESE 21:44:17 29° ENE 21:48:46 10° N
Cosmos 2369 Rocket 2.5 21:38:40 10° SSW 21:44:19 76° WNW 21:50:03 10° NNE
CZ-4B DEB 2.4 21:41:42 10° SSE 21:44:37 88° E 21:47:33 10° NNW
Tiangong 2 3.7 21:43:37 10° SW 21:44:47 11° SW 21:45:56 10° SSW
Terra 3.9 21:42:54 10° E 21:45:08 13° ENE 21:47:21 10° NNE
Helios 1B rocket 2.4 21:43:31 10° NNE 21:47:38 89° E 21:51:45 10° SSW
Cosmos 1703 Rocket 4.3 21:44:29 10° NNW 21:48:49 55° W 21:53:05 10° S
ERS-1 Rocket 3.1 21:43:53 10° SSE 21:48:51 66° ENE 21:53:51 10° N
SAR-Lupe-1 4.0 21:49:32 12° SSE 21:52:50 74° ENE 21:56:25 10° N
Cosmos 1606 2.6 21:49:06 10° N 21:52:54 86° E 21:56:41 10° S
GPS 2-04 Rocket1 4.3 21:51:05 10° WSW 21:53:45 18° SSW 21:55:27 14° SSE
Cosmos 1833 4.3 21:48:55 10° NNW 21:54:43 67° ENE 21:59:29 15° SE
DNEPR-1 R/B 3.7 21:49:48 10° SSW 21:55:00 86° SE 21:59:30 10° NE
Lacrosse 4 Rocket 1.5 21:51:45 10° NNW 21:56:16 79° ENE 21:59:44 16° SE
H-2A ROCKET BODY 3.9 21:56:31 10° S 21:58:08 12° SSE 21:58:45 11° SSE
MetOp-B 4.2 21:53:49 12° SSE 21:58:46 66° ENE 22:04:05 10° N
ATLAS 5 CENTAUR R/B 2.5 21:53:10 10° NW 21:59:09 85° SW 22:04:39 15° SSE
USA 215 3.5 21:53:28 12° ESE 21:59:30 67° NNE 22:06:01 10° NW
Cosmos 1733 Rocket 3.7 21:56:23 14° SSE 21:59:39 36° E 22:03:39 10° NNE
Aureole 3 3.2 21:56:58 10° SSW 21:59:54 58° W 22:02:55 10° N
Cosmos 2297 Rocket 4.5 21:59:43 10° NNE 22:01:41 12° NE 22:03:38 10° ENE
Milstar 3 4.3 21:52:42 10° SW 22:02:42 29° S 22:07:42 16° SE
Cosmos 1048 Rocket 4.1 21:57:30 10° NNW 22:02:50 78° WSW 22:07:37 12° SSE
ATLAS CENTAUR R/B 2.8 22:05:12 18° ESE 22:05:12 18° ESE 22:07:43 10° ENE
Cosmos 1437 4.3 22:05:43 10° NNE 22:08:15 21° ENE 22:09:07 19° E
Cosmos 1656 Rocket 3.9 22:04:29 10° S 22:09:37 44° ESE 22:14:52 10° NE
Cosmos 1408 3.0 22:06:05 10° SSW 22:09:46 64° W 22:13:30 10° N
SPOT 5 3.3 22:06:18 17° SSE 22:10:26 60° ENE 22:15:37 10° N
ARGOS 3.1 22:10:08 16° SSE 22:14:29 76° ENE 22:19:51 10° N
Lacrosse 5 rocket 2.9 22:12:26 10° W 22:15:44 33° NNW 22:19:07 10° NNE
COSMOS 2455 4.3 22:13:57 10° WSW 22:19:35 41° NW 22:25:16 10° NNE
CENTAUR R/B 2.9 22:13:45 10° SW 22:19:48 71° NW 22:26:48 10° NE
Cosmos 1346 4.2 22:20:35 10° NNE 22:22:50 23° ENE 22:22:51 23° ENE
Cosmos 372 Rocket 4.5 22:20:17 10° SSW 22:25:21 62° WNW 22:30:26 10° NNE
Meteor 1-27 Rocket 3.8 22:21:17 10° NNW 22:27:03 82° W 22:31:32 17° S
Cosmos 2251 Rocket 3.8 22:26:39 10° NNW 22:31:48 53° ENE 22:34:28 27° SE
Cosmos 1825 3.8 22:30:21 10° SW 22:33:49 34° WNW 22:37:19 10° N
Cosmos 1378 Rocket 4.2 22:31:16 10° N 22:35:29 40° ENE 22:37:01 30° ESE
Cosmos 1674 Rocket 3.4 22:31:33 10° N 22:35:53 74° E 22:37:55 30° SSE
SL-08 RB Rocket 3.8 22:33:00 23° S 22:35:55 84° WSW 22:40:37 10° NNW
DMSP B5D2-2 4.3 22:36:09 10° NNE 22:41:12 49° E 22:43:39 28° SSE
SPOT 1/Viking Rocket 3.5 22:39:32 26° SSE 22:42:35 86° ENE 22:47:50 10° NNW
Okean 3 3.7 22:38:31 10° N 22:42:37 52° E 22:43:55 37° SE
IGS 5A 4.2 22:43:48 32° ESE 22:44:57 39° ENE 22:48:50 10° N
H-2A R/B 3.0 22:50:34 27° E 22:51:27 30° ENE 22:55:04 10° N
Cosmos 2227 Rocket 3.5 22:47:43 10° N 22:52:34 28° NE 22:55:17 20° E
Cosmos 1943 Rocket 3.8 22:53:48 10° WSW 22:58:53 35° NW 23:03:58 10° N
Nadezhda 4 Rocket 4.2 22:53:34 11° SSW 22:59:36 68° W 23:05:45 10° N
Cosmos 1092 Rocket 3.9 22:56:29 21° S 23:00:45 88° E 23:06:56 10° N
Cosmos 2219 3.2 22:55:49 10° NNW 23:01:37 83° ENE 23:04:04 36° SSE
Landsat 7 3.8 23:05:14 38° S 23:07:02 80° WSW 23:11:50 10° NNW
Cosmos 1812 2.8 23:03:38 10° N 23:07:28 56° E 23:07:47 54° E
GEOS 3 Rocket 3.8 23:05:52 34° ESE 23:08:01 63° NE 23:13:13 10° NNW
Cosmos 494 Rocket 4.2 23:02:52 10° NNW 23:08:01 62° WSW 23:10:11 34° S
Cosmos 1627 Rocket 4.5 23:07:55 32° S 23:10:59 71° E 23:17:19 10° NNE
Cosmos 1908 Rocket 3.6 23:12:38 39° SSW 23:14:16 79° W 23:18:44 10° N
Cosmos 1553 Rocket 4.5 23:08:36 10° N 23:14:43 47° ENE 23:16:48 35° ESE
Meteor 1-14 Rocket 4.2 23:13:13 33° S 23:15:59 79° E 23:21:47 10° NNE
Cosmos 1867 4.1 23:14:06 10° NW 23:19:21 50° WSW 23:21:08 36° SSW
ISS -1.2 23:18:44 10° WNW 23:21:16 20° N 23:23:48 10° NE
Terra 1.8 23:20:55 48° S 23:22:13 80° WSW 23:27:00 10° NNW
CZ-4B R/B 4.0 23:18:39 10° NNE 23:23:15 38° E 23:23:15 38° E
H-2A R/B 3.1 23:20:37 23° SSW 23:23:30 41° W 23:28:31 10° NNW
Cosmos 2344 4.2 23:17:33 10° SW 23:25:06 60° NW 23:33:52 10° NE
Okean 2 Rocket 3.1 23:29:03 59° ESE 23:29:11 59° E 23:33:34 10° NNE
Cosmos 405 Rocket 2.5 23:26:25 10° N 23:29:59 82° NNW 23:29:59 82° NNW
APEX 3.5 23:28:18 10° NNW 23:32:38 56° ENE 23:32:38 56° ENE
Lacrosse 4 Rocket 4.1 23:32:54 10° W 23:34:17 11° WSW 23:35:40 10° WSW
Gbstr 26 Del rocket 3.0 23:30:11 10° NW 23:34:35 63° NNE 23:35:02 58° ENE
SL-19 R/B 4.4 23:32:26 10° NNE 23:38:34 84° ESE 23:41:05 39° S
deb Chang Zheng 4 3.5 23:34:57 10° NNE 23:39:25 71° ESE 23:39:30 70° ESE
DELTA 2 DEB (DPAF) 4.3 23:40:35 57° E 23:40:52 59° ENE 23:45:17 10° N
Cosmos 1782 Rocket 3.7 23:41:10 56° SW 23:41:55 68° W 23:46:18 10° N
USA 215 3.9 23:40:49 33° SSW 23:42:43 39° SW 23:48:48 10° WNW
ATLAS 5 CENTAUR R/B 4.5 23:39:34 10° WNW 23:43:16 16° WSW 23:46:13 12° SW
ATLAS CENTAUR R/B 2.3 23:41:20 20° WSW 23:43:44 44° NW 23:47:25 10° NNE
CZ-4C R/B 3.7 23:43:49 55° ENE 23:43:49 55° ENE 23:47:46 10° N
Cosmos 1697 Rocket 4.1 23:45:10 22° E 23:45:10 22° E 23:48:34 10° NE
Okean 1 3.3 23:42:10 10° N 23:45:55 77° N 23:45:55 77° N
CZ-2C R/B 3.9 23:45:38 33° E 23:46:21 34° ENE 23:50:45 10° N
Meteor 1-18 Rocket 4.4 23:40:56 10° NNW 23:46:39 71° W 23:48:21 46° SSW
Cosmos 2297 Rocket 2.5 23:41:27 10° NNW 23:47:03 57° ENE 23:48:21 46° ESE
Cosmos 1441 Rocket 3.5 23:49:38 10° NNW 23:53:01 63° NW 23:53:01 63° NW
ARGOS Delta rocket 3.5 23:50:13 10° NNE 23:54:42 85° E 23:54:44 85° ESE
Lacrosse 5 rocket 4.5 23:54:17 10° NW 23:55:56 12° N 23:57:35 10° NNE
